Starlink 3291

operational
NORAD ID: 50175 Int'l Des: 2021-125 Owner: SPXS Country: US Constellation: starlink
LEOCIRCULAR

Über Starlink 3291

Beschreibung wird geladen...

Live-Position

3D-Globus wird geladen...

Nächste Überflüge

Höhenverlauf

Altitude vs Time

uPlot chart will show altitude changes over time

Zweizeiliger Elementsatz

1 50175U 21125V 25304.86946916 -.00000208 00000-0 50080-5 0 9991
2 50175 53.2155 107.4144 0001393 92.8190 267.2962 15.08832761217158
Epoch: 31. Okt. 2025 • Age: 40 hours

Aktueller Status

Höhe 545.4 km
Geschwindigkeit 7.59 km/s
Subsatellitenpunkt -18.65°S, 144.19°W
Startdatum 18. Dez. 2021
Alter 3.8 years
Typ internet

Technische Details

Klassifizierung Payload
Masse 290.00 kg
Trockenmasse 270.00 kg
Gesamtmasse 290.00 kg
Länge 0.20 m
Durchmesser 2.80 m
Spannweite 9.00 m
Form Box + pan
Hersteller SPXS
Bus-Typ Starlink
Phasenstatus In Orbit
Besitzer/Staat SPXS/US

Große Konstellationen

Loading constellations...